Weather History for Cape Girardeau, MO

Change the Weather History Date:

Monday, December 31, 2012

  Actual Average Record
Temperature  
Mean Temperature 34 °F 33 °F  
Max Temperature 36 °F 42 °F 67 °F (2010)
Min Temperature 31 °F 24 °F -2 °F (1976)
Degree Days  
Heating Degree Days 31 32  
Month to date heating degree days 685 900  
Since 1 July heating degree days 1624 1751  
Cooling Degree Days 0 0  
Month to date cooling degree days 0 0  
Year to date cooling degree days 1784 1453  
Moisture  
Dew Point 31 °F    
Average Humidity 88    
Maximum Humidity 100    
Minimum Humidity 75    
Precipitation  
Precipitation 0.08 in 0.12 in 1.81 in (1984)
Month to date precipitation 1.71 4.25  
Year to date precipitation 26.99 46.81  
Sea Level Pressure  
Sea Level Pressure 30.16 in    
Wind  
Wind Speed 4 mph (South)    
Max Wind Speed 12 mph    
Max Gust Speed 15 mph    
Visibility 5 miles    
Events Rain , Snow    
T = Trace of Precipitation, MM = Missing Value Source: NWS Daily Summary

Daily Weather History Graph

Daily Weather History Graph

Search for Another Location

Airport:

Trip Planner

Search our weather history database for the weather conditions in past years. The results will help you decide how hot, cold, wet, or windy it might be!

Date:

Astronomy

Dec. 31, 2012 Rise Set
Actual Time 7:12 AM CST 4:51 PM CST
Civil Twilight 6:43 AM CST 5:20 PM CST
Nautical Twilight 6:10 AM CST 5:52 PM CST
Astronomical Twilight 5:38 AM CST 6:24 PM CST
Moon 8:16 PM CST (12/31) 8:58 AM CST (12/31)
Length of Visible Light 10h 37m
Length of Day
9h 39m
Waning Gibbous, 90% of the Moon is Illuminated
Dec 31
Waning Gibbous
Jan 4
Last Quarter
Jan 11
New
Jan 18
First Quarter
Jan 26
Full

Hourly Weather History & Observations

Time (CST) Temp. Windchill Dew Point Humidity Pressure Visibility Wind Dir Wind Speed Gust Speed Precip Events Conditions
12:53 AM 32.0 °F 24.8 °F 27.0 °F 82% 30.30 in 10.0 mi SSW 8.1 mph - N/A   Clear
1:53 AM 32.0 °F 28.7 °F 27.0 °F 82% 30.31 in 10.0 mi SSW 3.5 mph - N/A   Clear
2:53 AM 32.0 °F 26.4 °F 27.0 °F 82% 30.32 in 10.0 mi SSW 5.8 mph - N/A   Clear
3:53 AM 33.1 °F 27.7 °F 27.0 °F 78% 30.31 in 10.0 mi SSW 5.8 mph - N/A   Partly Cloudy
4:53 AM 33.1 °F 30.0 °F 27.0 °F 78% 30.30 in 10.0 mi SW 3.5 mph - N/A   Overcast
5:53 AM 33.1 °F 28.7 °F 27.0 °F 78% 30.29 in 10.0 mi South 4.6 mph - N/A   Overcast
6:53 AM 34.0 °F 29.8 °F 28.0 °F 79% 30.25 in 10.0 mi South 4.6 mph - N/A   Overcast
7:53 AM 34.0 °F 28.0 °F 28.9 °F 82% 30.26 in 7.0 mi SW 6.9 mph - 0.00 in   Overcast
8:53 AM 34.0 °F 27.2 °F 28.9 °F 82% 30.25 in 7.0 mi South 8.1 mph - 0.00 in   Overcast
9:15 AM 33.8 °F 27.7 °F 30.2 °F 87% 30.24 in 8.0 mi SSW 6.9 mph - N/A   Overcast
9:43 AM 33.8 °F 27.0 °F 28.4 °F 81% 30.25 in 6.0 mi SW 8.1 mph - N/A   Haze
9:53 AM 34.0 °F 27.2 °F 28.9 °F 82% 30.27 in 6.0 mi SSW 8.1 mph - 0.00 in Snow Light Snow
10:53 AM 34.0 °F 29.8 °F 30.0 °F 85% 30.23 in 7.0 mi South 4.6 mph - N/A   Overcast
11:53 AM 35.1 °F 31.0 °F 30.0 °F 82% 30.20 in 9.0 mi SW 4.6 mph - N/A   Overcast
12:53 PM 36.0 °F 31.1 °F 30.0 °F 79% 30.17 in 10.0 mi SSW 5.8 mph - N/A   Overcast
1:53 PM 35.1 °F 29.3 °F 30.0 °F 82% 30.15 in 9.0 mi SSW 6.9 mph - N/A   Overcast
2:53 PM 35.1 °F 31.0 °F 30.0 °F 82% 30.14 in 8.0 mi South 4.6 mph - N/A   Overcast
3:53 PM 36.0 °F - 30.0 °F 79% 30.14 in 6.0 mi Calm Calm - 0.00 in   Overcast
4:53 PM 35.1 °F - 32.0 °F 89% 30.14 in 3.0 mi Calm Calm - 0.00 in   Overcast
5:11 PM 33.8 °F - 32.0 °F 93% 30.13 in 3.0 mi Calm Calm - 0.01 in Rain Rain
5:23 PM 33.8 °F - 32.0 °F 93% 30.13 in 3.0 mi Calm Calm - 0.01 in Rain Light Rain
5:53 PM 34.0 °F 28.8 °F 32.0 °F 92% 30.11 in 2.5 mi SE 5.8 mph - 0.03 in Rain Rain
6:07 PM 33.8 °F 29.6 °F 33.8 °F 100% 30.11 in 3.0 mi SE 4.6 mph - 0.01 in Rain Light Rain
6:15 PM 33.8 °F 29.6 °F 32.0 °F 93% 30.10 in 2.5 mi SE 4.6 mph - N/A Rain Rain
6:45 PM 33.8 °F - 33.8 °F 100% 30.10 in 3.0 mi Calm Calm - 0.04 in Rain Light Rain
6:53 PM 33.8 °F - 33.8 °F 100% 30.10 in 3.0 mi Calm Calm - N/A Rain Light Rain
7:00 PM 33.8 °F - 33.8 °F 100% 30.10 in 2.5 mi Calm Calm - N/A Rain Light Rain
7:48 PM 33.8 °F 30.8 °F 33.8 °F 100% 30.09 in 1.8 mi North 3.5 mph - 0.01 in Rain Light Rain
7:53 PM 34.0 °F 31.0 °F 33.1 °F 96% 30.09 in 1.5 mi NE 3.5 mph - 0.01 in Rain Light Rain
8:12 PM 33.8 °F 29.6 °F 33.8 °F 100% 30.07 in 1.5 mi East 4.6 mph - 0.00 in   Overcast
8:41 PM 33.8 °F - 33.8 °F 100% 30.08 in 1.5 mi Calm Calm - 0.00 in   Overcast
8:53 PM 34.0 °F - 34.0 °F 100% 30.09 in 1.8 mi Calm Calm - 0.00 in   Overcast
9:15 PM 33.8 °F - 33.8 °F 100% 30.08 in 0.8 mi Calm Calm - N/A   Overcast
9:46 PM 33.8 °F 30.8 °F 33.8 °F 100% 30.07 in 1.0 mi NNE 3.5 mph - N/A   Overcast
9:53 PM 34.0 °F 31.0 °F 33.1 °F 96% 30.09 in 1.0 mi NNE 3.5 mph - N/A   Overcast
10:15 PM 33.8 °F 29.6 °F 33.8 °F 100% 30.07 in 0.8 mi NNE 4.6 mph - N/A   Overcast
10:24 PM 33.8 °F 30.8 °F 33.8 °F 100% 30.07 in 1.2 mi NNE 3.5 mph - N/A   Overcast
10:51 PM 33.8 °F - 33.8 °F 100% 30.08 in 1.2 mi Calm Calm - N/A   Overcast
10:53 PM 34.0 °F - 34.0 °F 100% 30.08 in 1.2 mi Calm Calm - N/A   Overcast
11:53 PM 34.0 °F 29.8 °F 33.1 °F 96% 30.07 in 1.0 mi NE 4.6 mph - N/A   Overcast